Location: Gleizolles
(44.4833°N, 6.7667°E)
Time: 13:35:16
(UTC+00:00)

deb Explorer IX - Pass Details

Date: 03 July 2024
Orbit: 510 x 878 km, 38.7° (Epoch: 21 July)

Event Time Altitude Azimuth Distance (km) Brightness Sun altitude
Rises 05:47:54 0° 260° (W) 2,606 ? 17.7°
Reaches altitude 10° 05:50:12 10° 251° (WSW) 1,729 ? 18.0°
Maximum altitude 05:53:48 35° 184° (S) 855 ? 18.7°
Drops below altitude 10° 05:57:35 10° 118° (ESE) 1,819 ? 19.3°
Sets 06:00:03 0° 109° (ESE) 2,764 ? 19.8°
